QTR8270 EBLG-EDDF

Flight info

Callsign QTR8270
Flight time N/A
Altitude 21000
Route LNO DCT IMCOM
Aircraft B77L/H-SDE1E2E3FGHIJ2J3J4J5M1RWXY/LB1D1

Departure

Time 2026-05-01 14:49
Airport Liège Airport (EBLG)

Arrival

Time N/A
Airport Frankfurt Main Airport (EDDF)
Time Latitude Longitude Altitude Speed Heading
2026-05-01 14:22 50.63541 5.42909 643 ft 0 kts 340°
2026-05-01 14:31 50.63507 5.42928 647 ft 4 kts 340°
2026-05-01 14:31 50.63486 5.42940 645 ft 4 kts 346°
2026-05-01 14:31 50.63460 5.42944 646 ft 4 kts 13°
2026-05-01 14:31 50.63437 5.42927 646 ft 4 kts 47°
2026-05-01 14:32 50.63423 5.42893 644 ft 4 kts 69°
2026-05-01 14:32 50.63417 5.42866 646 ft 4 kts 75°
2026-05-01 14:32 50.63412 5.42835 647 ft 0 kts 70°
2026-05-01 14:35 50.63416 5.42854 646 ft 5 kts 70°
2026-05-01 14:36 50.63431 5.42920 646 ft 7 kts 73°
2026-05-01 14:36 50.63413 5.42989 644 ft 7 kts 149°
2026-05-01 14:36 50.63360 5.42970 645 ft 9 kts 202°
2026-05-01 14:36 50.63291 5.42922 646 ft 12 kts 204°
2026-05-01 14:37 50.63207 5.42888 646 ft 14 kts 168°
2026-05-01 14:37 50.63119 5.42943 648 ft 14 kts 165°
2026-05-01 14:37 50.63026 5.42964 655 ft 11 kts 162°
2026-05-01 14:37 50.63019 5.42968 656 ft 0 kts 159°
2026-05-01 14:44 50.63012 5.42972 658 ft 6 kts 159°
2026-05-01 14:44 50.62965 5.43010 664 ft 8 kts 138°
2026-05-01 14:45 50.62928 5.43073 666 ft 8 kts 120°
2026-05-01 14:45 50.62958 5.43169 664 ft 0 kts 45°
2026-05-01 14:45 50.62961 5.43174 664 ft 0 kts 46°
2026-05-01 14:48 50.62961 5.43175 664 ft 0 kts 46°
2026-05-01 14:48 50.63347 5.43788 649 ft 121 kts 45°
2026-05-01 14:49 50.65039 5.46423 1436 ft 188 kts 47°
2026-05-01 14:49 50.66875 5.49361 3349 ft 188 kts 47°
2026-05-01 14:50 50.68446 5.51884 4526 ft 212 kts 48°
2026-05-01 14:50 50.71162 5.56152 6078 ft 247 kts 40°
2026-05-01 14:51 50.72769 5.57209 6908 ft 256 kts
2026-05-01 14:51 50.75775 5.54836 8634 ft 258 kts 295°
2026-05-01 14:52 50.76796 5.49414 10263 ft 264 kts 281°
2026-05-01 14:52 50.77275 5.46589 11140 ft 267 kts 282°
2026-05-01 14:52 50.78225 5.40817 12946 ft 284 kts 279°
2026-05-01 14:53 50.78669 5.37610 13373 ft 315 kts 279°
2026-05-01 14:53 50.79152 5.34084 13648 ft 350 kts 279°
2026-05-01 14:53 50.79702 5.30144 13935 ft 381 kts 279°
2026-05-01 14:53 50.79868 5.25932 14427 ft 390 kts 258°
2026-05-01 14:54 50.78980 5.21912 15433 ft 389 kts 237°
2026-05-01 14:54 50.77257 5.18670 16593 ft 386 kts 217°
2026-05-01 14:54 50.74949 5.16569 17691 ft 386 kts 198°
2026-05-01 14:54 50.72062 5.15780 18722 ft 391 kts 177°
2026-05-01 14:55 50.69656 5.16661 19599 ft 393 kts 155°
2026-05-01 14:55 50.67396 5.19104 20129 ft 401 kts 136°
2026-05-01 14:55 50.65845 5.22698 20089 ft 394 kts 114°
2026-05-01 14:55 50.64862 5.26665 20492 ft 394 kts 113°
2026-05-01 14:56 50.63738 5.30637 20865 ft 400 kts 117°
2026-05-01 14:56 50.62430 5.34522 21159 ft 403 kts 120°
2026-05-01 14:56 50.61004 5.38326 21201 ft 403 kts 122°
2026-05-01 14:56 50.59531 5.42058 21220 ft 401 kts 123°
2026-05-01 14:57 50.58045 5.45783 21218 ft 401 kts 123°
2026-05-01 14:57 50.55524 5.53502 21225 ft 400 kts 103°
2026-05-01 14:57 50.55364 5.57819 21238 ft 405 kts 87°
2026-05-01 14:58 50.55951 5.62164 21224 ft 410 kts 71°
2026-05-01 14:58 50.57124 5.66271 21221 ft 410 kts 67°
2026-05-01 14:58 50.57944 5.70492 21223 ft 404 kts 85°
2026-05-01 14:58 50.57846 5.74884 21227 ft 403 kts 103°
2026-05-01 14:59 50.56998 5.79054 21253 ft 400 kts 111°
2026-05-01 14:59 50.56067 5.83204 21228 ft 404 kts 110°
2026-05-01 14:59 50.55147 5.87396 21231 ft 407 kts 110°
2026-05-01 14:59 50.54245 5.91550 21232 ft 408 kts 110°
2026-05-01 15:00 50.52432 5.99974 21232 ft 405 kts 110°
2026-05-01 15:00 50.51533 6.04164 21227 ft 404 kts 109°
2026-05-01 15:00 50.50639 6.08327 21227 ft 401 kts 109°
2026-05-01 15:01 50.49749 6.12469 21231 ft 400 kts 110°
2026-05-01 15:01 50.48861 6.16593 21246 ft 398 kts 110°
2026-05-01 15:01 50.47971 6.20715 21240 ft 399 kts 109°
2026-05-01 15:01 50.47078 6.24844 21231 ft 400 kts 110°
2026-05-01 15:02 50.46195 6.28917 21235 ft 400 kts 110°
2026-05-01 15:02 50.45589 6.31709 21243 ft 400 kts 110°
2026-05-01 15:02 50.44401 6.37168 21241 ft 400 kts 110°
2026-05-01 15:02 50.43499 6.41306 21244 ft 400 kts 110°
2026-05-01 15:03 50.42600 6.45420 21240 ft 399 kts 110°
2026-05-01 15:03 50.41703 6.49521 21230 ft 396 kts 110°
2026-05-01 15:03 50.40810 6.53594 21232 ft 394 kts 110°
2026-05-01 15:03 50.39921 6.57637 21234 ft 390 kts 110°
2026-05-01 15:04 50.39039 6.61646 21242 ft 387 kts 110°
2026-05-01 15:04 50.38173 6.65572 21241 ft 386 kts 110°
2026-05-01 15:04 50.37292 6.69560 21278 ft 390 kts 110°
2026-05-01 15:04 50.36402 6.73581 21267 ft 391 kts 110°
2026-05-01 15:05 50.35510 6.77608 21265 ft 390 kts 110°
2026-05-01 15:05 50.34624 6.81595 21266 ft 386 kts 110°
2026-05-01 15:05 50.33751 6.85509 21272 ft 374 kts 110°
2026-05-01 15:05 50.32803 6.89202 21271 ft 358 kts 115°
2026-05-01 15:06 50.31753 6.92642 21271 ft 343 kts 117°